DECAYED

FREGAT DEB, 46018 (Decayed)

Orbit data source: Space-Track

FREGAT DEB, 46018 was space debris in LEO originally from a launch on Mon, 18 Jul 2011 UTC launched from the Tyuratam Missile And Space Complex (TTMTR). Debris objects in space refer to the collection of defunct objects orbiting the Earth. Examples of debris include non-operational satellites, rocket bodies, and fragments generated from explosions, collisions, or faulty payload assembly.

Not visible in the next 10 days
Identifier
46018, 2011-037HV
Orbit
Decayed
Country
Flag of CISCIS
Related business
Manufacturer
Lavochkin
Mission
Decayed spacecraft
Bus & Motor
Unknown
Mass
Unknown
Launch date (UTC)
2011-07-18 (14 years ago)
Launch vehicle
Unknown
Launch site
Tyuratam Missile And Space Complex (TTMTR)
Object type
Payload
Rocket body
Debris
Shape & HBR
Unknown
Radar Cross Section
Small (<0.1 m²)

Expand to show TLE details & history
Last TLE update: 11 months ago

TLE from 11 months ago
0 FREGAT DEB
1 46018U 11037HV  24294.63199390  .07580967  00000-0  81940-1 0  9997
2 46018  51.2983  29.8211 0121727 345.5138  14.2368 15.50140591186731
Epoch: 2024-10-20T15:10Z
TLE epoch observation values (Epoch: 2024-10-20T15:10:04.272Z)
Latitude
-0.00006°
Longitude
132.73302°
Altitude
336.918 km
Speed
7.753 km/s
True Right ascension
01h 59m 17s
True Declination
0° 00' 00"
Sunlit
Object was in full shadow at epoch
Visualization orbit readout
Latitude
Unknown
Longitude
Unknown
Altitude
Unknown
Speed
Unknown
Apparent Right ascension
Unknown
Apparent Declination
Unknown
Sunlit
N/A
Visualization observer readout
Local Sidereal Time
04:59:15
Azimuth
Unknown
Elevation
Unknown
Doppler factor
Unknown
Orbital elements
Apogee altitude
499.594 km
Perigee altitude
334.166 km
Semi-major axis
6,795.017 km
Eccentricity
0.01217
Inclination
51.2983°
RAAN
29.8211°
Arg. of periapsis
345.5138°
True anomaly
14.58497°
Mean anomaly
14.2368°
Eccentric anomaly
14.41037°
Mean motion
3.87487 °/min
Orbital period
92.91 mins
BSTAR
0.08194
Loading maneuver chart data...
Computing Atmospheric mass density...
Loading historical data...
Loading historical data...
Loading historical data...
Loading historical data...
Loading historical data...
Loading historical data...
Loading historical data...

Documentation

Showing up to 5 results
|